Location: Slanting_Bridge
(35.6330°N, 80.9830°W)
Time: 19:51:59
(UTC-04:00)

Amateur Radio Satellites - All Passes

Search period start: 28 April 2016 19:21
Search period end: 29 April 2016 19:21
Location: Slanting_Bridge, 35.6330°N, 80.9830°W

Satellite Date Start Highest point End Downlink Frequencies (MHz)
Time Altitude Azimuth
CANX-2 28 Apr 19:32:06 19:33:01 11° 66° (ENE) 19:33:58 2200.000
GOMX 1 28 Apr 19:43:26 19:48:12 77° 260° (W) 19:53:22 467.674
CUTE-I 28 Apr 19:44:22 19:49:10 34° 262° (W) 19:53:58 437.470
BRITE-PL 28 Apr 19:46:02 19:50:08 32° 265° (W) 19:54:32 437.365/2234.400
CINEMA 3 28 Apr 19:46:33 19:49:56 19° 67° (ENE) 19:53:21 145.822/145.860
STRAND 1 28 Apr 19:48:51 19:52:59 24° 96° (E) 19:57:04 437.568
M-CUBED/EXP-1 PRIME 28 Apr 19:55:26 19:59:43 36° 258° (WSW) 20:04:06 437.505
CUTE 1.7 + AOD 2 28 Apr 20:03:15 20:06:31 22° 70° (ENE) 20:09:47 437.475
DOVE 4 28 Apr 20:03:26 20:08:21 85° 77° (ENE) 20:13:34 437.250
AUBIESAT-1 28 Apr 20:19:03 20:22:49 25° 260° (W) 20:26:37 437.475
Cubesat XI-IV 28 Apr 20:30:09 20:32:24 13° 268° (W) 20:34:39 437.490
CUBESAT XI-V 28 Apr 20:30:28 20:31:02 10° 296° (WNW) 20:31:36 437.345
Cosmos 2491 28 Apr 20:33:22 20:41:03 35° 274° (W) 20:48:42 435.465 / 435.565
SEEDS 28 Apr 20:38:26 20:42:22 41° 74° (ENE) 20:46:18 437.485
YUBILEINY 28 Apr 20:41:48 20:50:28 64° 280° (W) 20:59:08 435.215
PRISM 28 Apr 20:46:12 20:48:53 17° 95° (E) 20:51:34 437.425
BEESAT 2 28 Apr 20:48:56 20:52:51 61° 301° (WNW) 20:56:49 435.950
COMPASS 1 28 Apr 20:50:41 20:54:33 40° 73° (ENE) 20:58:26 437.405
BEESAT 3 28 Apr 20:51:19 20:54:52 32° 305° (NW) 20:58:28 437.485
HO-68 28 Apr 20:53:56 21:01:07 84° 255° (WSW) 21:08:19 435.675
CANX-2 28 Apr 21:04:12 21:08:22 57° 260° (W) 21:12:32 2200.000
CUBEBUG 2 28 Apr 21:04:38 21:09:02 38° 73° (ENE) 21:13:26 437.445
Oscar 11 28 Apr 21:05:51 21:08:57 20° 69° (ENE) 21:12:03 145.826/435.025
UWE-3 28 Apr 21:07:42 21:11:42 29° 71° (ENE) 21:15:41 435.000/436.395/437.385
FUNcube-1 28 Apr 21:10:27 21:13:39 19° 69° (ENE) 21:16:50 145.935
JUGNU 28 Apr 21:13:13 21:16:41 16° 174° (S) 21:20:10 437.505
CINEMA 3 28 Apr 21:21:56 21:26:39 45° 262° (W) 21:31:29 145.822/145.860
Cosmos 2504 28 Apr 21:25:12 21:32:32 65° 93° (E) 21:39:37 435.465 / 435.565
AAUSAT CUBESAT 2 28 Apr 21:25:57 21:30:04 89° 65° (ENE) 21:34:12 437.432
STRAND 1 28 Apr 21:27:35 21:32:08 33° 290° (WNW) 21:36:41 437.568
CUTE 1.7 + AOD 2 28 Apr 21:38:42 21:42:12 25° 264° (W) 21:45:44 437.475
AIST 2 28 Apr 21:42:21 21:45:55 29° 113° (ESE) 21:49:33 435.215
DELFI C3 28 Apr 21:44:00 21:47:08 23° 71° (ENE) 21:50:17 145.870
ZACube-1 28 Apr 21:48:39 21:53:07 54° 75° (ENE) 21:57:32 437.345
RS-15 28 Apr 21:53:11 22:02:56 37° 105° (ESE) 22:13:04 29.354- 29.394
HUMSAT D 28 Apr 21:59:00 22:01:39 16° 68° (ENE) 22:04:18 437.325/437.525
SRMSAT 28 Apr 22:05:13 22:07:14 12° 167° (SSE) 22:09:14 437.500
SEEDS 28 Apr 22:16:14 22:18:14 13° 267° (W) 22:20:14 437.485
PRISM 28 Apr 22:20:30 22:24:15 33° 288° (WNW) 22:27:59 437.425
COMPASS 1 28 Apr 22:28:17 22:30:16 13° 267° (W) 22:32:15 437.405
Oscar 11 28 Apr 22:41:02 22:44:52 30° 263° (W) 22:48:41 145.826/435.025
CUBEBUG 2 28 Apr 22:42:25 22:45:43 19° 266° (W) 22:49:03 437.445
UWE-3 28 Apr 22:44:18 22:48:05 24° 265° (W) 22:51:51 435.000/436.395/437.385
FUNcube-1 28 Apr 22:45:27 22:49:38 35° 263° (W) 22:53:46 145.935
HO-68 28 Apr 22:47:25 22:49:40 12° 270° (W) 22:51:55 435.675
UNISAT 6 28 Apr 22:59:32 23:02:52 21° 95° (E) 23:06:09 437.425
AO-85 28 Apr 23:00:16 23:04:27 30° 52° (NE) 23:08:17 145.980
JUGNU 28 Apr 23:01:20 23:04:57 16° 184° (S) 23:08:35 437.505
CUBEBUG 1 28 Apr 23:16:11 23:18:53 16° 67° (ENE) 23:21:36 437.445
TIGRISAT 28 Apr 23:18:14 23:22:11 33° 97° (E) 23:26:02 435.000
DELFI C3 28 Apr 23:18:56 23:21:56 21° 265° (W) 23:24:56 145.870
AIST 2 28 Apr 23:21:09 23:24:24 22° 308° (NW) 23:27:41 435.215
Cosmos 2504 28 Apr 23:21:28 23:26:23 19° 290° (WNW) 23:31:15 435.465 / 435.565
ZACube-1 28 Apr 23:27:54 23:29:39 12° 268° (W) 23:31:23 437.345
VELOX 1 28 Apr 23:30:05 23:33:38 24° 69° (ENE) 23:37:14 145.980
HUMSAT D 28 Apr 23:33:03 23:36:58 36° 262° (W) 23:40:53 437.325/437.525
ANTELSAT 28 Apr 23:41:08 23:45:29 69° 102° (ESE) 23:49:43 437.575/2403.000
DX 1 28 Apr 23:42:49 23:46:37 30° 71° (ENE) 23:50:27 434.975-435.025
NANOSAT C BR1 28 Apr 23:45:15 23:46:41 11° 92° (E) 23:48:06 145.865
SRMSAT 28 Apr 23:51:56 23:55:37 17° 177° (S) 23:59:19 437.500
UKube-1 28 Apr 23:57:43 00:01:40 36° 72° (ENE) 00:05:39 .
ESTCUBE 1 29 Apr 00:00:18 00:04:45 77° 76° (ENE) 00:09:14 437.505/2401.250
AISAT 29 Apr 00:00:35 00:04:55 58° 74° (ENE) 00:09:19 437.250
RS-15 29 Apr 00:03:38 00:14:40 59° 306° (NW) 00:26:24 29.354- 29.394
50 SAT 29 Apr 00:11:08 00:14:49 89° 256° (WSW) 00:18:30 437.505
GONETS M04 29 Apr 00:30:59 00:37:47 26° 83° (E) 00:44:35
QB50P2 29 Apr 00:31:25 00:35:32 48° 100° (E) 00:39:36 145.880/145.840
POLYITAN 1 29 Apr 00:33:30 00:37:37 49° 100° (E) 00:41:42 437.675
UNISAT 6 29 Apr 00:35:53 00:39:32 27° 290° (WNW) 00:43:08 437.425
SPROUT 29 Apr 00:35:58 00:40:06 47° 74° (ENE) 00:44:15 437.525
POPSAT HIP 1 29 Apr 00:37:21 00:41:31 53° 100° (E) 00:45:38 437.405
DUCHIFAT 1 29 Apr 00:37:34 00:41:40 48° 100° (E) 00:45:43 145.980
QB50P1 29 Apr 00:41:00 00:45:13 60° 101° (E) 00:49:22 145.935-145.965
AO-85 29 Apr 00:41:02 00:44:45 24° 250° (WSW) 00:48:12 145.980
CUBEBUG 1 29 Apr 00:50:45 00:54:49 38° 262° (W) 00:58:55 437.445
JUGNU 29 Apr 00:51:50 00:53:12 11° 194° (SSW) 00:54:34 437.505
TIGRISAT 29 Apr 00:55:40 00:58:34 18° 293° (WNW) 01:01:27 435.000
VELOX 1 29 Apr 01:06:19 01:09:59 25° 264° (W) 01:13:40 145.980
AIST 1 29 Apr 01:14:46 01:18:46 40° 92° (E) 01:22:48
NANOSAT C BR1 29 Apr 01:18:34 01:22:39 48° 286° (WNW) 01:26:42 145.865
DX 1 29 Apr 01:19:39 01:22:49 20° 265° (W) 01:26:00 434.975-435.025
TISAT 1 29 Apr 01:27:00 01:31:08 53° 74° (ENE) 01:35:17 437.305
BEESAT 29 Apr 01:32:33 01:33:58 11° 63° (ENE) 01:35:22 436.000
UKube-1 29 Apr 01:35:08 01:37:49 16° 266° (W) 01:40:30 .
BUGSAT 1 29 Apr 01:38:40 01:42:51 64° 284° (WNW) 01:46:56 437.445
SRMSAT 29 Apr 01:40:42 01:44:03 15° 187° (S) 01:47:24 437.500
AISAT 29 Apr 01:40:57 01:41:44 10° 269° (W) 01:42:30 437.250
Cosmos 2499 29 Apr 01:45:44 01:52:14 38° 89° (E) 01:58:37 435.465 / 435.565
JAS-2 29 Apr 01:50:51 01:58:12 44° 97° (E) 02:05:32 435.910
CUSAT 1 29 Apr 02:08:43 02:13:54 21° 72° (ENE) 02:19:34 437.405
QB50P2 29 Apr 02:09:04 02:10:52 13° 294° (WNW) 02:12:40 145.880/145.840
POLYITAN 1 29 Apr 02:11:14 02:12:58 12° 294° (WNW) 02:14:41 437.675
SPROUT 29 Apr 02:14:31 02:16:16 12° 268° (W) 02:18:02 437.525
DUCHIFAT 1 29 Apr 02:15:10 02:16:53 12° 294° (WNW) 02:18:38 145.980
POPSAT HIP 1 29 Apr 02:15:24 02:16:48 11° 295° (WNW) 02:18:11 437.405
O/OREOS (USA 219) 29 Apr 02:16:00 02:20:29 58° 68° (ENE) 02:24:54 437.305
QB50P1 29 Apr 02:20:01 02:20:25 10° 296° (WNW) 02:20:51 145.935-145.965
ITUPSAT 1 29 Apr 02:21:10 02:25:31 37° 71° (ENE) 02:29:53 437.325
RS-15 29 Apr 02:22:39 02:30:29 20° 335° (NNW) 02:38:37 29.354- 29.394
GONETS M04 29 Apr 02:25:10 02:33:53 61° 280° (W) 02:42:37
SWISSCUBE 29 Apr 02:32:43 02:37:22 56° 74° (ENE) 02:42:01 437.505
PCSat 29 Apr 02:38:11 02:43:35 66° 61° (ENE) 02:48:57 145.827
Oscar 19 29 Apr 02:38:52 02:44:02 61° 101° (E) 02:49:08 437.125/150
AIST 1 29 Apr 02:54:21 02:56:32 14° 287° (WNW) 02:58:46
TISAT 1 29 Apr 03:06:16 03:07:04 10° 268° (W) 03:07:52 437.305
BEESAT 29 Apr 03:06:24 03:11:07 69° 258° (WSW) 03:15:53 436.000
KKS-1 29 Apr 03:11:16 03:13:46 15° 66° (ENE) 03:16:16 437.445
AO-7 29 Apr 03:33:37 03:37:33 14° 91° (E) 03:41:27 29.400- 29.500
JAS-2 29 Apr 03:36:01 03:42:56 38° 293° (WNW) 03:49:59 435.910
Gurwin Techsat 1B 29 Apr 03:36:50 03:42:11 87° 108° (ESE) 03:47:29 435.225
Cosmos 2499 29 Apr 03:39:08 03:45:18 31° 285° (WNW) 03:51:27 435.465 / 435.565
STARS 29 Apr 03:39:50 03:42:28 16° 66° (ENE) 03:45:05 437.465
ITAMSAT 1 29 Apr 03:47:44 03:52:40 44° 99° (E) 03:57:35 435.822/435.867
CUSAT 1 29 Apr 03:49:18 03:56:20 72° 264° (W) 04:04:20 437.405
DANDE 29 Apr 03:51:28 03:57:46 64° 81° (E) 04:05:35 436.750
O/OREOS (USA 219) 29 Apr 03:58:36 03:59:16 10° 263° (W) 03:59:57 437.305
ITUPSAT 1 29 Apr 04:00:02 04:03:26 19° 265° (W) 04:06:51 437.325
SWISSCUBE 29 Apr 04:13:29 04:15:28 12° 268° (W) 04:17:26 437.505
MOZHAYETS 4 29 Apr 04:16:46 04:21:08 47° 74° (ENE) 04:25:31
Oscar 19 29 Apr 04:19:56 04:22:47 15° 296° (WNW) 04:25:38 437.125/150
PCSat 29 Apr 04:23:43 04:26:20 14° 257° (WSW) 04:28:58 145.827
RS-15 29 Apr 04:43:38 04:50:08 15° 13° (NNE) 04:56:41 29.354- 29.394
KKS-1 29 Apr 04:45:38 04:49:55 45° 261° (W) 04:54:14 437.445
BEESAT 2 29 Apr 05:10:00 05:13:32 29° 55° (NE) 05:17:01 435.950
BEESAT 3 29 Apr 05:10:55 05:14:47 52° 57° (ENE) 05:18:37 437.485
STARS 29 Apr 05:14:14 05:18:26 42° 261° (W) 05:22:40 437.465
Gurwin Techsat 1B 29 Apr 05:20:14 05:21:19 11° 299° (WNW) 05:22:25 435.225
AO-7 29 Apr 05:22:52 05:31:15 85° 107° (ESE) 05:39:37 29.400- 29.500
ITAMSAT 1 29 Apr 05:28:06 05:31:46 20° 294° (WNW) 05:35:27 435.822/435.867
DANDE 29 Apr 05:35:37 05:40:22 21° 270° (W) 05:45:46 436.750
CUSAT 1 29 Apr 05:35:47 05:37:38 11° 277° (W) 05:39:32 437.405
CUBESAT XI-V 29 Apr 05:49:54 05:54:19 49° 74° (ENE) 05:58:45 437.345
MOZHAYETS 4 29 Apr 05:56:09 05:58:31 14° 268° (W) 06:00:53
HORYU 2 29 Apr 06:06:47 06:11:13 83° 102° (ESE) 06:15:37 437.375
BRITE-PL 29 Apr 06:17:29 06:19:11 11° 89° (E) 06:20:52 437.365/2234.400
CUTE-I 29 Apr 06:26:23 06:28:35 12° 91° (E) 06:30:47 437.470
LilacSat-2 29 Apr 06:46:49 06:49:00 15° 93° (E) 06:51:11 437.200
BEESAT 2 29 Apr 06:48:18 06:51:10 19° 249° (WSW) 06:54:02 435.950
BEESAT 3 29 Apr 06:51:30 06:51:59 10° 253° (WSW) 06:52:29 437.485
YUBILEINY 29 Apr 06:55:36 07:04:07 56° 79° (E) 07:12:37 435.215
RS-15 29 Apr 06:56:31 07:07:44 39° 45° (NE) 07:18:55 29.354- 29.394
STRAND 1 29 Apr 07:01:59 07:06:12 27° 68° (ENE) 07:10:24 437.568
Cubesat XI-IV 29 Apr 07:07:12 07:12:00 34° 98° (E) 07:16:46 437.490
AO-7 29 Apr 07:17:29 07:23:00 20° 305° (NW) 07:28:31 29.400- 29.500
NOAA 15 29 Apr 07:20:25 07:25:44 72° 103° (ESE) 07:31:02 137.62
Cosmos 2504 29 Apr 07:21:32 07:26:29 18° 70° (ENE) 07:31:37 435.465 / 435.565
CUBESAT XI-V 29 Apr 07:29:45 07:31:57 13° 268° (W) 07:34:08 437.345
Cosmos 2491 29 Apr 07:33:04 07:41:36 57° 90° (E) 07:50:10 435.465 / 435.565
M-CUBED/EXP-1 PRIME 29 Apr 07:39:09 07:42:01 19° 98° (E) 07:44:44 437.505
NOAA 18 29 Apr 07:40:35 07:46:05 86° 283° (WNW) 07:51:32 137.9125
AIST 2 29 Apr 07:44:04 07:48:13 82° 242° (WSW) 07:52:20 435.215
GOMX 1 29 Apr 07:48:18 07:53:32 44° 98° (E) 07:58:32 467.674
SO-50 29 Apr 07:50:44 07:54:43 26° 111° (ESE) 07:58:47 436.795
BRITE-PL 29 Apr 07:52:27 07:58:11 83° 283° (WNW) 08:03:49 437.365/2234.400
AUBIESAT-1 29 Apr 08:01:08 08:04:34 29° 101° (E) 08:07:45 437.475
CUTE-I 29 Apr 08:03:46 08:09:02 67° 286° (WNW) 08:14:19 437.470
DOVE 4 29 Apr 08:06:05 08:10:39 31° 95° (E) 08:14:59 437.250
LilacSat-2 29 Apr 08:20:01 08:23:21 29° 288° (WNW) 08:26:40 437.200
HO-68 29 Apr 08:26:12 08:31:27 22° 94° (E) 08:36:40 435.675
STRAND 1 29 Apr 08:40:44 08:45:13 31° 263° (W) 08:49:43 437.568
Cubesat XI-IV 29 Apr 08:47:31 08:51:53 26° 292° (WNW) 08:56:15 437.490
CANX-2 29 Apr 08:52:25 08:56:06 29° 97° (E) 08:59:45 2200.000
YUBILEINY 29 Apr 08:53:26 09:00:17 27° 277° (W) 09:07:11 435.215
NOAA 15 29 Apr 09:02:28 09:04:50 13° 298° (WNW) 09:07:13 137.62
PRISM 29 Apr 09:06:28 09:10:30 70° 259° (W) 09:14:35 437.425
RS-15 29 Apr 09:08:52 09:20:59 67° 247° (WSW) 09:33:01 29.354- 29.394
ISS 29 Apr 09:10:06 09:13:21 87° 320° (NW) 09:16:37 145.825
AAUSAT CUBESAT 2 29 Apr 09:12:16 09:14:58 17° 94° (E) 09:17:40 437.432
Cosmos 2504 29 Apr 09:12:54 09:20:26 74° 266° (W) 09:28:31 435.465 / 435.565
M-CUBED/EXP-1 PRIME 29 Apr 09:13:15 09:16:34 25° 296° (WNW) 09:19:40 437.505
CINEMA 3 29 Apr 09:19:56 09:24:34 57° 100° (E) 09:28:56 145.822/145.860
NOAA 18 29 Apr 09:25:37 09:25:51 10° 301° (WNW) 09:26:06 137.9125
CUTE 1.7 + AOD 2 29 Apr 09:25:37 09:29:48 65° 100° (E) 09:34:00 437.475
GOMX 1 29 Apr 09:27:08 09:31:12 22° 293° (WNW) 09:35:09 467.674
SO-50 29 Apr 09:30:36 09:35:04 34° 307° (NW) 09:39:33 436.795
Cosmos 2491 29 Apr 09:31:34 09:38:48 28° 289° (WNW) 09:46:09 435.465 / 435.565
BRITE-PL 29 Apr 09:34:32 09:35:43 11° 299° (WNW) 09:36:55 437.365/2234.400
AUBIESAT-1 29 Apr 09:36:13 09:38:47 17° 298° (WNW) 09:41:14 437.475
ZACube-1 29 Apr 09:42:19 09:43:55 12° 92° (E) 09:45:30 437.345
DOVE 4 29 Apr 09:43:53 09:48:09 26° 291° (WNW) 09:52:14 437.250
UNISAT 6 29 Apr 09:56:05 09:58:53 16° 67° (ENE) 10:01:38 437.425
SEEDS 29 Apr 10:00:29 10:04:38 65° 284° (WNW) 10:08:47 437.485
COMPASS 1 29 Apr 10:11:30 10:15:38 68° 285° (WNW) 10:19:46 437.405
HO-68 29 Apr 10:12:30 10:19:31 61° 290° (WNW) 10:26:31 435.675
TIGRISAT 29 Apr 10:14:03 10:17:44 23° 69° (ENE) 10:21:23 435.000
CANX-2 29 Apr 10:28:42 10:31:44 20° 291° (WNW) 10:34:46 2200.000
Oscar 11 29 Apr 10:30:32 10:34:47 57° 100° (E) 10:39:00 145.826/435.025
CUBEBUG 2 29 Apr 10:35:00 10:39:18 63° 285° (WNW) 10:43:29 437.445
UWE-3 29 Apr 10:36:11 10:40:29 89° 78° (ENE) 10:44:40 435.000/436.395/437.385
FUNcube-1 29 Apr 10:36:18 10:40:25 53° 100° (E) 10:44:27 145.935
ANTELSAT 29 Apr 10:36:34 10:40:59 43° 73° (ENE) 10:45:22 437.575/2403.000
AAUSAT CUBESAT 2 29 Apr 10:46:50 10:50:30 31° 288° (WNW) 10:54:10 437.432
ISS 29 Apr 10:48:43 10:50:14 13° 335° (NNW) 10:51:46 145.825
DELFI C3 29 Apr 10:58:25 11:02:20 58° 100° (E) 11:06:16 145.870
CINEMA 3 29 Apr 10:59:06 11:01:05 13° 296° (WNW) 11:03:02 145.822/145.860
ZACube-1 29 Apr 11:16:25 11:20:27 44° 286° (WNW) 11:24:23 437.345
HUMSAT D 29 Apr 11:19:14 11:23:07 41° 99° (E) 11:26:57 437.325/437.525
QB50P2 29 Apr 11:21:27 11:24:58 25° 70° (ENE) 11:28:30 145.880/145.840
POLYITAN 1 29 Apr 11:23:30 11:27:03 26° 70° (ENE) 11:30:38 437.675
PHONESAT 2.4 29 Apr 11:24:27 11:27:08 26° 148° (SSE) 11:29:50 2401.200-2431.200
DUCHIFAT 1 29 Apr 11:26:53 11:30:22 25° 70° (ENE) 11:33:51 145.980
POPSAT HIP 1 29 Apr 11:27:09 11:30:47 27° 71° (ENE) 11:34:25 437.405
RS-15 29 Apr 11:27:39 11:31:03 12° 265° (W) 11:34:27 29.354- 29.394
QB50P1 29 Apr 11:30:39 11:34:23 30° 71° (ENE) 11:38:10 145.935-145.965
UNISAT 6 29 Apr 11:30:40 11:35:11 46° 261° (W) 11:39:39 437.425
Cosmos 2499 29 Apr 11:43:43 11:44:06 10° 65° (ENE) 11:44:29 435.465 / 435.565
TIGRISAT 29 Apr 11:50:06 11:54:14 30° 263° (W) 11:58:19 435.000
AISAT 29 Apr 11:55:20 11:57:42 14° 93° (E) 12:00:04 437.250
ESTCUBE 1 29 Apr 11:56:32 11:59:54 20° 95° (E) 12:03:14 437.505/2401.250
JAS-2 29 Apr 12:05:02 12:06:26 11° 55° (NE) 12:07:53 435.910
NANOSAT C BR1 29 Apr 12:07:11 12:11:27 82° 75° (ENE) 12:15:45 145.865
Oscar 11 29 Apr 12:09:15 12:10:22 11° 295° (WNW) 12:11:30 145.826/435.025
ANTELSAT 29 Apr 12:14:57 12:17:49 16° 267° (W) 12:20:42 437.575/2403.000
FUNcube-1 29 Apr 12:15:00 12:16:08 11° 295° (WNW) 12:17:16 145.935
BUGSAT 1 29 Apr 12:25:00 12:29:07 57° 74° (ENE) 12:33:17 437.445
GONETS M04 29 Apr 12:39:08 12:47:48 60° 80° (E) 12:56:20
CUBEBUG 1 29 Apr 12:41:57 12:46:14 46° 99° (E) 12:50:29 437.445
HUMSAT D 29 Apr 12:56:23 12:58:21 13° 293° (WNW) 13:00:18 437.325/437.525
QB50P2 29 Apr 12:57:16 13:00:41 23° 264° (W) 13:04:07 145.880/145.840
VELOX 1 29 Apr 12:58:23 13:02:53 74° 103° (ESE) 13:07:19 145.980
POLYITAN 1 29 Apr 12:59:23 13:02:47 23° 264° (W) 13:06:11 437.675
PHONESAT 2.4 29 Apr 13:00:45 13:03:53 59° 343° (NNW) 13:07:00 2401.200-2431.200
AIST 1 29 Apr 13:01:46 13:06:11 75° 266° (W) 13:10:34
DUCHIFAT 1 29 Apr 13:02:33 13:05:58 23° 264° (W) 13:09:24 145.980
POPSAT HIP 1 29 Apr 13:03:14 13:06:31 21° 265° (W) 13:09:48 437.405
QB50P1 29 Apr 13:07:08 13:10:11 19° 265° (W) 13:13:15 145.935-145.965
DX 1 29 Apr 13:09:15 13:13:40 88° 94° (E) 13:18:03 434.975-435.025
AO-85 29 Apr 13:11:13 13:15:25 23° 109° (ESE) 13:19:40 145.980
TISAT 1 29 Apr 13:17:12 13:17:33 10° 92° (E) 13:17:54 437.305
50 SAT 29 Apr 13:17:41 13:21:09 42° 286° (WNW) 13:24:37 437.505
Gurwin Techsat 1B 29 Apr 13:19:13 13:21:00 12° 62° (ENE) 13:22:47 435.225
UKube-1 29 Apr 13:23:11 13:27:32 78° 284° (WNW) 13:31:52 .
AISAT 29 Apr 13:30:06 13:34:22 44° 287° (WNW) 13:38:36 437.250
Cosmos 2499 29 Apr 13:30:43 13:38:24 71° 82° (E) 13:46:41 435.465 / 435.565
ESTCUBE 1 29 Apr 13:32:42 13:36:43 32° 289° (WNW) 13:40:43 437.505/2401.250
JAS-2 29 Apr 13:44:32 13:50:11 81° 74° (ENE) 13:56:37 435.910
Oscar 19 29 Apr 13:52:39 13:57:44 65° 74° (ENE) 14:02:53 437.125/150
SPROUT 29 Apr 14:00:36 14:04:49 56° 286° (WNW) 14:09:00 437.525
CUBEBUG 1 29 Apr 14:19:43 14:22:05 14° 294° (WNW) 14:24:28 437.445
ITUPSAT 1 29 Apr 14:26:42 14:28:21 12° 92° (E) 14:30:00 437.325
AO-7 29 Apr 14:29:53 14:34:56 18° 54° (NE) 14:39:58 29.400- 29.500
SWISSCUBE 29 Apr 14:36:52 14:40:07 18° 94° (E) 14:43:21 437.505
GONETS M04 29 Apr 14:37:12 14:43:53 25° 277° (W) 14:50:32
PHONESAT 2.4 29 Apr 14:38:11 14:41:04 31° 359° (N) 14:43:58 2401.200-2431.200
TISAT 1 29 Apr 14:49:22 14:53:30 54° 286° (WNW) 14:57:36 437.305
AO-85 29 Apr 14:50:26 14:55:39 45° 304° (NW) 15:00:52 145.980
Gurwin Techsat 1B 29 Apr 14:54:54 15:00:12 80° 257° (WSW) 15:05:33 435.225
ITAMSAT 1 29 Apr 15:02:44 15:07:43 50° 73° (ENE) 15:12:43 435.822/435.867
BEESAT 29 Apr 15:09:37 15:14:01 37° 98° (E) 15:18:25 436.000
Cosmos 2499 29 Apr 15:25:40 15:30:47 19° 277° (W) 15:36:08 435.465 / 435.565
JAS-2 29 Apr 15:34:34 15:36:13 11° 274° (W) 15:37:53 435.910
Oscar 19 29 Apr 15:35:21 15:37:27 12° 269° (W) 15:39:34 437.125/150
PCSat 29 Apr 15:37:14 15:39:18 12° 102° (ESE) 15:41:21 145.827
ISS 29 Apr 15:40:28 15:43:22 29° 35° (NE) 15:46:16 145.825
ITUPSAT 1 29 Apr 16:01:49 16:06:31 60° 286° (WNW) 16:11:12 437.325
SWISSCUBE 29 Apr 16:13:36 16:18:01 39° 288° (WNW) 16:22:26 437.505
PHONESAT 2.4 29 Apr 16:15:10 16:18:18 53° 17° (NNE) 16:21:25 2401.200-2431.200
MOZHAYETS 4 29 Apr 16:16:15 16:18:35 14° 92° (E) 16:20:53
AO-7 29 Apr 16:18:15 16:26:33 88° 71° (ENE) 16:34:53 29.400- 29.500
O/OREOS (USA 219) 29 Apr 16:24:58 16:29:32 66° 292° (WNW) 16:34:07 437.305
SO-50 29 Apr 16:26:06 16:28:06 12° 43° (NE) 16:30:06 436.795
KKS-1 29 Apr 16:39:26 16:43:40 41° 99° (E) 16:47:52 437.445
ITAMSAT 1 29 Apr 16:44:12 16:47:25 17° 267° (W) 16:50:39 435.822/435.867
BEESAT 29 Apr 16:48:06 16:51:31 20° 293° (WNW) 16:54:56 436.000
CUSAT 1 29 Apr 16:52:36 16:55:24 34° 285° (WNW) 16:58:52 437.405
DANDE 29 Apr 17:01:10 17:03:47 82° 94° (E) 17:06:46 436.750
HORYU 2 29 Apr 17:01:39 17:06:00 52° 74° (ENE) 17:10:21 437.375
STARS 29 Apr 17:06:27 17:10:39 41° 99° (E) 17:14:48 437.465
PCSat 29 Apr 17:16:34 17:21:58 73° 297° (WNW) 17:27:25 145.827
ISS 29 Apr 17:17:05 17:19:44 23° 230° (SW) 17:22:22 145.825
NOAA 18 29 Apr 17:26:01 17:29:22 17° 63° (ENE) 17:32:44 137.9125
CUTE-I 29 Apr 17:45:01 17:48:22 17° 64° (ENE) 17:51:44 437.470
Cosmos 2491 29 Apr 17:48:07 17:54:52 24° 69° (ENE) 18:01:34 435.465 / 435.565
CUBESAT XI-V 29 Apr 17:50:33 17:53:24 16° 93° (E) 17:56:14 437.345
MOZHAYETS 4 29 Apr 17:51:35 17:55:58 47° 286° (WNW) 18:00:20
PHONESAT 2.4 29 Apr 17:52:14 17:55:06 31° 211° (SSW) 17:57:57 2401.200-2431.200
SO-50 29 Apr 18:04:31 18:09:14 81° 242° (WSW) 18:13:45 436.795
YUBILEINY 29 Apr 18:05:15 18:05:50 10° 75° (ENE) 18:06:24 435.215
AO-7 29 Apr 18:15:33 18:20:09 16° 268° (W) 18:24:47 29.400- 29.500
KKS-1 29 Apr 18:17:07 18:19:52 16° 294° (WNW) 18:22:35 437.445
M-CUBED/EXP-1 PRIME 29 Apr 18:22:04 18:25:35 21° 63° (ENE) 18:29:07 437.505
Cubesat XI-IV 29 Apr 18:26:14 18:31:14 42° 71° (ENE) 18:36:14 437.490
NOAA 15 29 Apr 18:37:29 18:42:44 85° 76° (ENE) 18:48:03 137.62
HORYU 2 29 Apr 18:41:04 18:42:48 12° 267° (W) 18:44:34 437.375
AUBIESAT-1 29 Apr 18:43:32 18:47:30 29° 66° (ENE) 18:51:29 437.475
STARS 29 Apr 18:44:01 18:46:38 16° 294° (WNW) 18:49:14 437.465
GOMX 1 29 Apr 18:53:19 18:57:37 32° 70° (ENE) 19:02:12 467.674
HO-68 29 Apr 18:55:03 18:57:43 12° 55° (NE) 19:00:24 435.675
LilacSat-2 29 Apr 18:58:15 19:02:08 82° 78° (ENE) 19:06:03 437.200
BEESAT 3 29 Apr 19:00:01 19:02:43 18° 110° (ESE) 19:05:26 437.485
BRITE-PL 29 Apr 19:00:16 19:04:51 80° 76° (ENE) 19:09:52 437.365/2234.400
BEESAT 2 29 Apr 19:02:50 19:03:01 10° 107° (ESE) 19:03:10 435.950
NOAA 18 29 Apr 19:04:02 19:09:29 61° 258° (WSW) 19:14:57 137.9125
PCSat 29 Apr 19:05:09 19:06:19 11° 316° (NW) 19:07:28 145.827
DOVE 4 29 Apr 19:08:27 19:12:23 24° 67° (ENE) 19:16:27 437.250
JUGNU 29 Apr 19:12:30 19:13:21 10° 165° (SSE) 19:14:12 437.505
STRAND 1 29 Apr 19:17:57 19:18:53 10° 91° (E) 19:19:49 437.568
